Weather History for KRNV - March, 2014

Change the Weather History Date:

Thursday, March 13, 2014

  Actual Average (KGLH) Record (KGLH)
Temperature  
Mean Temperature 48 °F 54 °F  
Max Temperature 63 °F 64 °F 89 °F (1955)
Min Temperature 34 °F 44 °F 23 °F (1998)
Degree Days  
Heating Degree Days 16 11  
Month to date heating degree days 168  
Since 1 July heating degree days 2477  
Cooling Degree Days 0 0  
Month to date cooling degree days 0  
Year to date cooling degree days 5  
Moisture  
Dew Point 33 °F    
Average Humidity 59    
Maximum Humidity 92    
Minimum Humidity 31    
Precipitation  
Precipitation 0.00 in 0.12 in 4.50 in (1975)
Month to date precipitation 1.71  
Year to date precipitation 11.70  
Sea Level Pressure  
Sea Level Pressure 30.22 in    
Wind  
Wind Speed 4 mph (SW)    
Max Wind Speed 10 mph    
Max Gust Speed 16 mph    
Visibility 10 miles    
Events      
T = Trace of Precipitation, MM = Missing Value Source: NWS Daily Summary

Daily Weather History Graph

Daily Weather History Graph

Search for Another Location

Airport or City:

Trip Planner

Search our weather history database for the weather conditions in past years. The results will help you decide how hot, cold, wet, or windy it might be!

Date:

Astronomy

Mar. 13, 2014 Rise Set
Actual Time 7:16 AM CDT 7:09 PM CDT
Civil Twilight 6:51 AM CDT 7:34 PM CDT
Nautical Twilight 6:22 AM CDT 8:03 PM CDT
Astronomical Twilight 5:53 AM CDT 8:32 PM CDT
Moon 4:40 PM CDT (3/13) 5:16 AM CDT (3/13)
Length of Visible Light 12h 42m
Length of Day
11h 53m
Waxing Gibbous, 91% of the Moon is Illuminated
Mar 13
Waxing Gibbous
Mar 16
Full
Mar 23
Last Quarter
Mar 30
New
Apr 7
First Quarter

Hourly Weather History & Observations

Time (CDT) Temp. Windchill Dew Point Humidity Pressure Visibility Wind Dir Wind Speed Gust Speed Precip Events Conditions
12:15 AM 41.9 °F 38.2 °F 31.8 °F 67% 30.19 in 10.0 mi North 5.8 mph - N/A   Clear
12:35 AM 41.5 °F 38.6 °F 31.3 °F 67% 30.20 in 10.0 mi NNW 4.6 mph - N/A   Clear
12:55 AM 40.3 °F 37.1 °F 31.5 °F 71% 30.20 in 10.0 mi NNW 4.6 mph - N/A   Clear
1:15 AM 39.2 °F - 32.0 °F 75% 30.20 in 10.0 mi Calm Calm - N/A   Clear
1:35 AM 38.7 °F - 32.0 °F 77% 30.21 in 10.0 mi Calm Calm - N/A   Clear
1:55 AM 39.2 °F 37.0 °F 32.0 °F 75% 30.22 in 10.0 mi NNW 3.5 mph - N/A   Clear
2:15 AM 38.3 °F - 32.0 °F 78% 30.21 in 10.0 mi Calm Calm - N/A   Clear
2:35 AM 37.4 °F - 31.8 °F 80% 30.21 in 10.0 mi Calm Calm - N/A   Clear
2:55 AM 35.4 °F - 32.0 °F 87% 30.20 in 10.0 mi Calm Calm - N/A   Clear
3:15 AM 34.5 °F 29.4 °F 32.4 °F 92% 30.20 in 10.0 mi WSW 5.8 mph - N/A   Clear
3:35 AM 34.9 °F 29.9 °F 32.0 °F 89% 30.19 in 10.0 mi West 5.8 mph - N/A   Clear
3:55 AM 35.1 °F 32.2 °F 31.6 °F 87% 30.19 in 10.0 mi West 3.5 mph - N/A   Clear
4:15 AM 36.0 °F - 30.9 °F 82% 30.19 in 10.0 mi Calm Calm - N/A   Clear
4:35 AM 36.5 °F - 30.9 °F 80% 30.20 in 10.0 mi Calm Calm - N/A   Clear
4:55 AM 36.7 °F - 30.7 °F 79% 30.20 in 10.0 mi Calm Calm - N/A   Clear
5:15 AM 36.1 °F - 30.7 °F 81% 30.21 in 10.0 mi Calm Calm - N/A   Clear
5:35 AM 34.9 °F 32.0 °F 31.6 °F 88% 30.22 in 10.0 mi West 3.5 mph - N/A   Clear
5:55 AM 34.3 °F - 31.6 °F 90% 30.22 in 10.0 mi Calm Calm - N/A   Clear
6:15 AM 34.7 °F - 31.1 °F 87% 30.23 in 10.0 mi Calm Calm - N/A   Clear
6:35 AM 34.3 °F - 31.1 °F 88% 30.24 in 10.0 mi Calm Calm - N/A   Clear
6:55 AM 34.5 °F - 31.1 °F 87% 30.24 in 10.0 mi Calm Calm - N/A   Clear
7:15 AM 34.3 °F - 30.9 °F 87% 30.25 in 10.0 mi Calm Calm - N/A   Clear
7:35 AM 34.5 °F - 31.1 °F 87% 30.25 in 10.0 mi Calm Calm - N/A   Clear
7:55 AM 35.4 °F - 32.2 °F 88% 30.26 in 10.0 mi Calm Calm - N/A   Clear
8:15 AM 37.4 °F - 34.0 °F 87% 30.27 in 10.0 mi Calm Calm - N/A   Clear
8:35 AM 40.5 °F - 33.1 °F 75% 30.28 in 10.0 mi Calm Calm - N/A   Clear
8:55 AM 42.6 °F - 34.2 °F 72% 30.29 in 10.0 mi Calm Calm - N/A   Clear
9:15 AM 45.0 °F - 35.6 °F 70% 30.29 in 10.0 mi Calm Calm - N/A   Clear
9:35 AM 47.1 °F - 33.6 °F 59% 30.30 in 10.0 mi Calm Calm - N/A   Clear
9:55 AM 49.1 °F - 34.0 °F 56% 30.30 in 10.0 mi WSW 3.5 mph - N/A   Clear
10:15 AM 50.5 °F - 34.2 °F 53% 30.30 in 10.0 mi West 4.6 mph - N/A   Clear
10:35 AM 52.0 °F - 33.3 °F 49% 30.30 in 10.0 mi West 3.5 mph - N/A   Clear
10:55 AM 53.1 °F - 33.3 °F 47% 30.30 in 10.0 mi SSW 4.6 mph - N/A   Clear
11:15 AM 54.7 °F - 32.4 °F 43% 30.29 in 10.0 mi WSW 9.2 mph - N/A   Clear
11:35 AM 55.6 °F - 32.0 °F 41% 30.29 in 10.0 mi West 6.9 mph - N/A   Clear
11:55 AM 56.5 °F - 31.5 °F 39% 30.28 in 10.0 mi WNW 6.9 mph - N/A   Clear
12:15 PM 57.4 °F - 33.1 °F 40% 30.28 in 10.0 mi SW 5.8 mph - N/A   Clear
12:35 PM 57.9 °F - 33.3 °F 39% 30.27 in 10.0 mi SW 5.8 mph - N/A   Clear
12:55 PM 58.3 °F - 33.3 °F 39% 30.27 in 10.0 mi SSW 4.6 mph - N/A   Clear
1:15 PM 59.2 °F - 32.9 °F 37% 30.27 in 10.0 mi WSW 5.8 mph - N/A   Clear
1:35 PM 59.7 °F - 32.9 °F 36% 30.25 in 10.0 mi WSW 8.1 mph - N/A   Clear
1:55 PM 60.4 °F - 32.9 °F 36% 30.24 in 10.0 mi West 5.8 mph - N/A   Clear
2:15 PM 60.6 °F - 32.9 °F 35% 30.23 in 10.0 mi SW 6.9 mph - N/A   Clear
2:35 PM 61.3 °F - 33.6 °F 35% 30.22 in 10.0 mi South 5.8 mph - N/A   Clear
2:55 PM 62.1 °F - 34.2 °F 35% 30.22 in 10.0 mi WSW 10.4 mph - N/A   Clear
3:15 PM 62.8 °F - 33.3 °F 33% 30.21 in 10.0 mi West 6.9 mph - N/A   Clear
3:35 PM 62.6 °F - 32.9 °F 33% 30.20 in 10.0 mi Calm Calm - N/A   Clear
3:55 PM 62.4 °F - 32.4 °F 32% 30.20 in 10.0 mi SW 8.1 mph - N/A   Clear
4:15 PM 63.1 °F - 32.9 °F 32% 30.19 in 10.0 mi WSW 4.6 mph 16.1 mph N/A   Clear
4:35 PM 63.0 °F - 32.0 °F 31% 30.19 in 10.0 mi South 8.1 mph - N/A   Clear
4:55 PM 62.6 °F - 32.4 °F 32% 30.19 in 10.0 mi SSW 8.1 mph - N/A   Clear
5:15 PM 63.0 °F - 33.1 °F 33% 30.19 in 10.0 mi SW 8.1 mph - N/A   Clear
5:35 PM 63.0 °F - 33.4 °F 33% 30.18 in 10.0 mi WSW 10.4 mph - N/A   Clear
5:55 PM 62.6 °F - 32.5 °F 32% 30.18 in 10.0 mi SSW 9.2 mph - N/A   Clear
6:15 PM 62.1 °F - 33.1 °F 34% 30.18 in 10.0 mi SSW 9.2 mph - N/A   Clear
6:35 PM 61.0 °F - 33.6 °F 36% 30.18 in 10.0 mi SSW 10.4 mph - N/A   Clear
6:55 PM 59.0 °F - 34.2 °F 39% 30.17 in 10.0 mi South 6.9 mph - N/A   Clear
7:15 PM 56.5 °F - 35.4 °F 45% 30.17 in 7.0 mi South 8.1 mph - N/A   Clear
7:35 PM 54.5 °F - 37.6 °F 53% 30.17 in 10.0 mi SSE 6.9 mph - N/A   Clear
7:55 PM 53.1 °F - 37.6 °F 56% 30.17 in 10.0 mi South 8.1 mph - N/A   Clear
8:15 PM 52.7 °F - 37.2 °F 56% 30.17 in 10.0 mi SSE 8.1 mph - N/A   Clear
8:35 PM 52.7 °F - 35.8 °F 53% 30.17 in 10.0 mi SSE 8.1 mph - N/A   Clear
8:55 PM 52.0 °F - 36.3 °F 55% 30.17 in 10.0 mi SSE 8.1 mph - N/A   Clear
9:15 PM 52.0 °F - 35.8 °F 54% 30.17 in 10.0 mi SSE 8.1 mph - N/A   Clear
9:35 PM 51.4 °F - 35.6 °F 55% 30.17 in 10.0 mi SSE 8.1 mph - N/A   Clear
9:55 PM 51.1 °F - 36.0 °F 56% 30.17 in 10.0 mi SSE 9.2 mph - N/A   Clear
10:15 PM 50.9 °F - 36.1 °F 57% 30.17 in 10.0 mi SSE 9.2 mph - N/A   Clear
10:35 PM 50.7 °F - 36.0 °F 57% 30.16 in 10.0 mi SSE 9.2 mph - N/A   Clear
10:55 PM 50.5 °F - 35.6 °F 57% 30.16 in 10.0 mi SSE 8.1 mph - N/A   Clear
11:15 PM 49.6 °F - 36.0 °F 59% 30.15 in 10.0 mi SSE 8.1 mph - N/A   Clear
11:35 PM 48.9 °F - 36.0 °F 61% 30.16 in 10.0 mi SSE 8.1 mph - N/A   Clear
11:55 PM 47.7 °F - 36.1 °F 64% 30.15 in 10.0 mi SSE 6.9 mph - N/A   Clear